Rankin Inlet, Nunavut

10:27 PM CDT on June 24, 2017 (GMT -0500)
Rankin Inlet

Weather History for CYRT - January, 2013

Change the Weather History Date:

Sunday, January 6, 2013

  Actual Average Record
Temperature  
Mean Temperature -29 °F -  
Max Temperature -23 °F -15 °F 26 °F (2011)
Min Temperature -33 °F -26 °F -43 °F (2004)
Degree Days  
Heating Degree Days 94    
Moisture  
Dew Point -36 °F    
Average Humidity 66    
Maximum Humidity 69    
Minimum Humidity 48    
Precipitation  
Precipitation 0.00 in - - ()
Sea Level Pressure  
Sea Level Pressure 29.80 in    
Wind  
Wind Speed 5 mph ()    
Max Wind Speed 12 mph    
Max Gust Speed -    
Visibility 13.9 miles    
Events Snow    
Averages and records for this station are not official NWS values.
T = Trace of Precipitation, MM = Missing Value Source: Averaged Metar Reports

Daily Weather History Graph

Daily Weather History Graph

Search for Another Location

Airport or City:

Trip Planner

Search our weather history database for the weather conditions in past years. The results will help you decide how hot, cold, wet, or windy it might be!

Date:

Astronomy

Jan. 06, 2013 Rise Set
Actual Time 9:35 AM CST 2:53 PM CST
Civil Twilight 8:29 AM CST 3:59 PM CST
Nautical Twilight 7:27 AM CST 5:02 PM CST
Astronomical Twilight 6:30 AM CST 5:58 PM CST
Moon 2:57 AM CST (1/6) 11:08 AM CST (1/6)
Length of Visible Light 7h 30m
Length of Day
5h 18m
Waning Crescent, 33% of the Moon is Illuminated
Jan 6
Waning Crescent
Jan 11
New
Jan 18
First Quarter
Jan 26
Full
Feb 3
Last Quarter

Hourly Weather History & Observations

Time (CST) Temp. Windchill Dew Point Humidity Pressure Visibility Wind Dir Wind Speed Gust Speed Precip Events Conditions
12:00 AM -30 °F - -38 °F 48% 29.90 in 15 mi West 9.2 mph - - Snow Snow
12:00 AM -31.0 °F -53.4 °F -38.2 °F 68% 29.90 in 15.0 mi West 9.2 mph - N/A   Partly Cloudy
1:00 AM -31.0 °F -56.0 °F -38.2 °F 68% 29.90 in 15.0 mi WSW 11.5 mph - N/A   Partly Cloudy
2:00 AM -31.0 °F -43.3 °F -38.2 °F 68% 29.90 in 15.0 mi West 3.5 mph - N/A   Clear
3:00 AM -31.0 °F -50.3 °F -38.2 °F 68% 29.89 in 15.0 mi WSW 6.9 mph - N/A   Clear
4:00 AM -31.0 °F - -38.2 °F 68% 29.88 in 15.0 mi West 2.3 mph - N/A   Clear
5:00 AM -31.0 °F -46.1 °F -38.2 °F 68% 29.87 in 15.0 mi West 4.6 mph - N/A   Clear
6:00 AM -31 °F - -38 °F 51% 29.86 in 15 mi West 6.9 mph - - Snow Snow
6:00 AM -31.0 °F -50.3 °F -38.2 °F 68% 29.86 in 15.0 mi West 6.9 mph - N/A   Clear
7:00 AM -31.0 °F - -38.2 °F 68% 29.86 in 15.0 mi West 2.3 mph - N/A   Clear
8:00 AM -31.0 °F -46.1 °F -38.2 °F 68% 29.84 in 15.0 mi WNW 4.6 mph - N/A   Clear
10:00 AM -29.2 °F -46.2 °F -36.4 °F 68% 29.83 in 15.0 mi WSW 5.8 mph - N/A   Clear
10:28 AM - - - N/A% - 15.0 mi SW 3.5 mph - N/A   Clear
11:00 AM -29.2 °F -46.2 °F -36.4 °F 68% 29.81 in 15.0 mi SSW 5.8 mph - N/A   Clear
12:00 PM -27 °F - -35 °F 49% 29.81 in 15 mi SW 5.8 mph - -   Partly Cloudy
12:00 PM -27.4 °F -45.9 °F -34.6 °F 69% 29.81 in 15.0 mi SW 6.9 mph - N/A   Clear
1:00 PM -27.4 °F -39.2 °F -34.6 °F 69% 29.79 in 15.0 mi SW 3.5 mph - N/A   Clear
2:00 PM -27.4 °F - -34.6 °F 69% 29.78 in 15.0 mi Calm Calm - N/A   Partly Cloudy
2:25 PM - - - N/A% - 15.0 mi SW 3.5 mph - N/A   Scattered Clouds
2:45 PM - - - N/A% - 15.0 mi SW 3.5 mph - N/A   Mostly Cloudy
3:00 PM -27.4 °F - -34.6 °F 69% 29.78 in 15.0 mi SSW 2.3 mph - N/A   Mostly Cloudy
3:22 PM - - - N/A% - 15.0 mi Calm Calm - N/A   Partly Cloudy
4:00 PM -27.4 °F -41.9 °F -34.6 °F 69% 29.76 in 15.0 mi South 4.6 mph - N/A   Partly Cloudy
5:00 PM -27.4 °F -44.1 °F -34.6 °F 69% 29.75 in 15.0 mi South 5.8 mph - N/A   Partly Cloudy
6:00 PM -28 °F - -35 °F 53% 29.73 in 15 mi South 3.5 mph - -  
6:00 PM -27.4 °F -41.9 °F -34.6 °F 69% 29.73 in 15.0 mi South 4.6 mph - N/A   Clear
7:00 PM -27.4 °F -44.1 °F -34.6 °F 69% 29.73 in 15.0 mi SSW 5.8 mph - N/A   Clear
7:37 PM - - - N/A% - 15.0 mi SSW 4.6 mph - N/A   Clear
8:00 PM -27.4 °F -45.9 °F -34.6 °F 69% 29.70 in 15.0 mi SSW 6.9 mph - N/A   Clear
9:00 PM -25.6 °F -45.4 °F -32.8 °F 69% 29.69 in 15.0 mi SSW 8.1 mph - N/A   Clear
9:52 PM - - - N/A% - 5.0 mi South 5.8 mph - N/A   Ice Crystals
10:00 PM -25.6 °F -39.8 °F -32.8 °F 69% 29.68 in 5.0 mi SSW 4.6 mph - N/A   Ice Crystals
11:00 PM -23.8 °F -39.8 °F -31.0 °F 69% 29.67 in 3.0 mi SW 5.8 mph - N/A   Ice Crystals
11:43 PM - - - N/A% - 10.0 mi South 3.5 mph - N/A   Scattered Clouds